• Bienvenue sur Pilotes Québec!
  • Bienvenue sur le site de Pilotes Québec, la nouvelle communauté des pilotes et aviateurs du Québec.
  • L'image de cette semaine nous vient de Denis Morissette!  La photo a été prise à Miguasha, en Gaspésie, lors d'un atterrissage par bon vent de travers et fort vent rabattant en finale.
  • Calendrier des activités
  • sujets récents au forum...
  • Les nouvelles en bref...

Connexion


J'ai oublié mon mot de passe
Renvoyer l'e-mail de confirmation
 

Publicité

Vous aimeriez afficher une publicité pour joindre la communauté des pilotes professionnels et privé du Québec?  Cliquez ici pour en savoir plus!

Conditions actuelles

Click for Quebec, Quebec Forecast

METAR - Québec


2015/07/05 05:00
CYQB 050500Z 28003KT 15SM BKN078 17/14 A2992 RMK AC7 SLP131 DENSITY ALT 500FT

TAF - Québec


2015/07/05 06:42
TAF CYQB 050538Z 0506/0606 VRB03KT P6SM SCT060 BKN080
FM051200 25006KT P6SM BKN030
FM051700 27010KT P6SM SCT040
TEMPO 0517/0522 BKN040
BECMG 0523/0601 VRB03KT
RMK NXT FCST BY 051200Z